CCSDS_OMM_VERS = 2.0 CREATION_DATE = ORIGINATOR = OBJECT_NAME = INMARSAT 4-F2 (SOUTHPAN/PRN 122) OBJECT_ID = 2005-044A CENTER_NAME = EARTH REF_FRAME = TEME TIME_SYSTEM = UTC MEAN_ELEMENT_THEORY = SGP/SGP4 EPOCH = 2026-09-12T06:01:57.059040 MEAN_MOTION = 1.00271168 ECCENTRICITY = .00023333 INCLINATION = 5.2089 RA_OF_ASC_NODE = 43.7219 ARG_OF_PERICENTER = 130.726 MEAN_ANOMALY = 50.8032 EPHEMERIS_TYPE = 0 CLASSIFICATION_TYPE = U NORAD_CAT_ID = 28899 ELEMENT_SET_NO = 999 REV_AT_EPOCH = 7639 BSTAR = 0 MEAN_MOTION_DOT = -.27200E-5 MEAN_MOTION_DDOT = 0 CCSDS_OMM_VERS = 2.0 CREATION_DATE = ORIGINATOR = OBJECT_NAME = GSAT-8 (GAGAN/PRN 127) OBJECT_ID = 2011-022A CENTER_NAME = EARTH REF_FRAME = TEME TIME_SYSTEM = UTC MEAN_ELEMENT_THEORY = SGP/SGP4 EPOCH = 2026-09-12T05:36:44.476704 MEAN_MOTION = 1.00271562 ECCENTRICITY = .00057933 INCLINATION = 2.35 RA_OF_ASC_NODE = 80.6681 ARG_OF_PERICENTER = 156.9482 MEAN_ANOMALY = 252.9059 EPHEMERIS_TYPE = 0 CLASSIFICATION_TYPE = U NORAD_CAT_ID = 37605 ELEMENT_SET_NO = 999 REV_AT_EPOCH = 5409 BSTAR = 0 MEAN_MOTION_DOT = .71000E-6 MEAN_MOTION_DDOT = 0 CCSDS_OMM_VERS = 2.0 CREATION_DATE = ORIGINATOR = OBJECT_NAME = LUCH 5A (SDCM/PRN 140) OBJECT_ID = 2011-074B CENTER_NAME = EARTH REF_FRAME = TEME TIME_SYSTEM = UTC MEAN_ELEMENT_THEORY = SGP/SGP4 EPOCH = 2026-09-12T07:12:21.561984 MEAN_MOTION = 1.00272684 ECCENTRICITY = .00038825 INCLINATION = 8.9694 RA_OF_ASC_NODE = 72.5067 ARG_OF_PERICENTER = 120.8575 MEAN_ANOMALY = 72.9739 EPHEMERIS_TYPE = 0 CLASSIFICATION_TYPE = U NORAD_CAT_ID = 37951 ELEMENT_SET_NO = 999 REV_AT_EPOCH = 5392 BSTAR = 0 MEAN_MOTION_DOT = -.60000E-6 MEAN_MOTION_DDOT = 0 CCSDS_OMM_VERS = 2.0 CREATION_DATE = ORIGINATOR = OBJECT_NAME = SES-5 (EGNOS/PRN 136) OBJECT_ID = 2012-036A CENTER_NAME = EARTH REF_FRAME = TEME TIME_SYSTEM = UTC MEAN_ELEMENT_THEORY = SGP/SGP4 EPOCH = 2026-09-12T07:05:06.004032 MEAN_MOTION = 1.00270079 ECCENTRICITY = .00019729 INCLINATION = 0.015 RA_OF_ASC_NODE = 43.107 ARG_OF_PERICENTER = 124.0606 MEAN_ANOMALY = 295.384 EPHEMERIS_TYPE = 0 CLASSIFICATION_TYPE = U NORAD_CAT_ID = 38652 ELEMENT_SET_NO = 999 REV_AT_EPOCH = 4533 BSTAR = 0 MEAN_MOTION_DOT = 0 MEAN_MOTION_DDOT = 0 CCSDS_OMM_VERS = 2.0 CREATION_DATE = ORIGINATOR = OBJECT_NAME = GSAT-10 (GAGAN/PRN 128) OBJECT_ID = 2012-051B CENTER_NAME = EARTH REF_FRAME = TEME TIME_SYSTEM = UTC MEAN_ELEMENT_THEORY = SGP/SGP4 EPOCH = 2026-09-12T03:22:21.728928 MEAN_MOTION = 1.00273324 ECCENTRICITY = .00056203 INCLINATION = 0.0556 RA_OF_ASC_NODE = 270.2303 ARG_OF_PERICENTER = 201.8742 MEAN_ANOMALY = 12.6259 EPHEMERIS_TYPE = 0 CLASSIFICATION_TYPE = U NORAD_CAT_ID = 38779 ELEMENT_SET_NO = 999 REV_AT_EPOCH = 5097 BSTAR = 0 MEAN_MOTION_DOT = -.18000E-5 MEAN_MOTION_DDOT = 0 CCSDS_OMM_VERS = 2.0 CREATION_DATE = ORIGINATOR = OBJECT_NAME = LUCH 5B (SDCM/PRN 125) OBJECT_ID = 2012-061A CENTER_NAME = EARTH REF_FRAME = TEME TIME_SYSTEM = UTC MEAN_ELEMENT_THEORY = SGP/SGP4 EPOCH = 2026-09-12T05:16:23.927232 MEAN_MOTION = 1.00269791 ECCENTRICITY = .00060089 INCLINATION = 10.6683 RA_OF_ASC_NODE = 48.9944 ARG_OF_PERICENTER = 165.3581 MEAN_ANOMALY = 199.658 EPHEMERIS_TYPE = 0 CLASSIFICATION_TYPE = U NORAD_CAT_ID = 38977 ELEMENT_SET_NO = 999 REV_AT_EPOCH = 5048 BSTAR = 0 MEAN_MOTION_DOT = -.14800E-5 MEAN_MOTION_DDOT = 0 CCSDS_OMM_VERS = 2.0 CREATION_DATE = ORIGINATOR = OBJECT_NAME = ASTRA 5B (EGNOS/PRN 123) OBJECT_ID = 2014-011B CENTER_NAME = EARTH REF_FRAME = TEME TIME_SYSTEM = UTC MEAN_ELEMENT_THEORY = SGP/SGP4 EPOCH = 2026-09-12T05:27:45.338112 MEAN_MOTION = 1.002693 ECCENTRICITY = .00028069 INCLINATION = 0.1039 RA_OF_ASC_NODE = 293.5902 ARG_OF_PERICENTER = 256.5197 MEAN_ANOMALY = 266.5756 EPHEMERIS_TYPE = 0 CLASSIFICATION_TYPE = U NORAD_CAT_ID = 39617 ELEMENT_SET_NO = 999 REV_AT_EPOCH = 4554 BSTAR = 0 MEAN_MOTION_DOT = .12200E-5 MEAN_MOTION_DDOT = 0 CCSDS_OMM_VERS = 2.0 CREATION_DATE = ORIGINATOR = OBJECT_NAME = LUCH 5V (SDCM/PRN 141) OBJECT_ID = 2014-023A CENTER_NAME = EARTH REF_FRAME = TEME TIME_SYSTEM = UTC MEAN_ELEMENT_THEORY = SGP/SGP4 EPOCH = 2026-09-12T00:40:05.422656 MEAN_MOTION = 1.00270837 ECCENTRICITY = .00026582 INCLINATION = 5.3446 RA_OF_ASC_NODE = 68.7928 ARG_OF_PERICENTER = 139.8943 MEAN_ANOMALY = 247.126 EPHEMERIS_TYPE = 0 CLASSIFICATION_TYPE = U NORAD_CAT_ID = 39727 ELEMENT_SET_NO = 999 REV_AT_EPOCH = 4523 BSTAR = 0 MEAN_MOTION_DOT = -.28100E-5 MEAN_MOTION_DDOT = 0 CCSDS_OMM_VERS = 2.0 CREATION_DATE = ORIGINATOR = OBJECT_NAME = GSAT-15 (GAGAN/PRN 139) OBJECT_ID = 2015-065A CENTER_NAME = EARTH REF_FRAME = TEME TIME_SYSTEM = UTC MEAN_ELEMENT_THEORY = SGP/SGP4 EPOCH = 2026-09-12T02:22:25.608864 MEAN_MOTION = 1.0026943 ECCENTRICITY = .00016503 INCLINATION = 0.0447 RA_OF_ASC_NODE = 264.7267 ARG_OF_PERICENTER = 239.0915 MEAN_ANOMALY = 336.379 EPHEMERIS_TYPE = 0 CLASSIFICATION_TYPE = U NORAD_CAT_ID = 41028 ELEMENT_SET_NO = 999 REV_AT_EPOCH = 3967 BSTAR = 0 MEAN_MOTION_DOT = -.27200E-5 MEAN_MOTION_DDOT = 0 CCSDS_OMM_VERS = 2.0 CREATION_DATE = ORIGINATOR = OBJECT_NAME = EUTELSAT 117 WEST B (WAAS/PRN 131) OBJECT_ID = 2016-038B CENTER_NAME = EARTH REF_FRAME = TEME TIME_SYSTEM = UTC MEAN_ELEMENT_THEORY = SGP/SGP4 EPOCH = 2026-09-12T06:30:24.329952 MEAN_MOTION = 1.00271804 ECCENTRICITY = .00000969 INCLINATION = 0.0372 RA_OF_ASC_NODE = 14.1157 ARG_OF_PERICENTER = 184.7473 MEAN_ANOMALY = 133.0193 EPHEMERIS_TYPE = 0 CLASSIFICATION_TYPE = U NORAD_CAT_ID = 41589 ELEMENT_SET_NO = 999 REV_AT_EPOCH = 3753 BSTAR = 0 MEAN_MOTION_DOT = -.26000E-6 MEAN_MOTION_DDOT = 0 CCSDS_OMM_VERS = 2.0 CREATION_DATE = ORIGINATOR = OBJECT_NAME = SES-15 (WAAS/PRN 133) OBJECT_ID = 2017-026A CENTER_NAME = EARTH REF_FRAME = TEME TIME_SYSTEM = UTC MEAN_ELEMENT_THEORY = SGP/SGP4 EPOCH = 2026-09-12T06:26:54.664800 MEAN_MOTION = 1.00269096 ECCENTRICITY = .00003657 INCLINATION = 0.049 RA_OF_ASC_NODE = 328.9875 ARG_OF_PERICENTER = 178.6946 MEAN_ANOMALY = 171.1639 EPHEMERIS_TYPE = 0 CLASSIFICATION_TYPE = U NORAD_CAT_ID = 42709 ELEMENT_SET_NO = 999 REV_AT_EPOCH = 830 BSTAR = 0 MEAN_MOTION_DOT = .45000E-6 MEAN_MOTION_DDOT = 0 CCSDS_OMM_VERS = 2.0 CREATION_DATE = ORIGINATOR = OBJECT_NAME = QZS-2 (QZSS/PRN 194) OBJECT_ID = 2017-028A CENTER_NAME = EARTH REF_FRAME = TEME TIME_SYSTEM = UTC MEAN_ELEMENT_THEORY = SGP/SGP4 EPOCH = 2026-09-11T19:43:20.736192 MEAN_MOTION = 1.00261633 ECCENTRICITY = .07506816 INCLINATION = 39.3043 RA_OF_ASC_NODE = 241.878 ARG_OF_PERICENTER = 270.3972 MEAN_ANOMALY = 275.98 EPHEMERIS_TYPE = 0 CLASSIFICATION_TYPE = U NORAD_CAT_ID = 42738 ELEMENT_SET_NO = 999 REV_AT_EPOCH = 849 BSTAR = 0 MEAN_MOTION_DOT = -.19000E-5 MEAN_MOTION_DDOT = 0 CCSDS_OMM_VERS = 2.0 CREATION_DATE = ORIGINATOR = OBJECT_NAME = QZS-3 (QZSS/PRN 199) OBJECT_ID = 2017-048A CENTER_NAME = EARTH REF_FRAME = TEME TIME_SYSTEM = UTC MEAN_ELEMENT_THEORY = SGP/SGP4 EPOCH = 2026-09-11T23:06:44.374176 MEAN_MOTION = 1.00275047 ECCENTRICITY = .00016161 INCLINATION = 0.0521 RA_OF_ASC_NODE = 162.5194 ARG_OF_PERICENTER = 347.4711 MEAN_ANOMALY = 314.697 EPHEMERIS_TYPE = 0 CLASSIFICATION_TYPE = U NORAD_CAT_ID = 42917 ELEMENT_SET_NO = 999 REV_AT_EPOCH = 3312 BSTAR = 0 MEAN_MOTION_DOT = -.36300E-5 MEAN_MOTION_DDOT = 0 CCSDS_OMM_VERS = 2.0 CREATION_DATE = ORIGINATOR = OBJECT_NAME = QZS-4 (QZSS/PRN 195) OBJECT_ID = 2017-062A CENTER_NAME = EARTH REF_FRAME = TEME TIME_SYSTEM = UTC MEAN_ELEMENT_THEORY = SGP/SGP4 EPOCH = 2026-09-11T13:27:38.627136 MEAN_MOTION = 1.00274735 ECCENTRICITY = .07496992 INCLINATION = 40.0519 RA_OF_ASC_NODE = 342.3827 ARG_OF_PERICENTER = 269.6347 MEAN_ANOMALY = 81.1278 EPHEMERIS_TYPE = 0 CLASSIFICATION_TYPE = U NORAD_CAT_ID = 42965 ELEMENT_SET_NO = 999 REV_AT_EPOCH = 3266 BSTAR = 0 MEAN_MOTION_DOT = -.34300E-5 MEAN_MOTION_DDOT = 0 CCSDS_OMM_VERS = 2.0 CREATION_DATE = ORIGINATOR = OBJECT_NAME = BEIDOU-3 G1 (PRN 130) OBJECT_ID = 2018-085A CENTER_NAME = EARTH REF_FRAME = TEME TIME_SYSTEM = UTC MEAN_ELEMENT_THEORY = SGP/SGP4 EPOCH = 2026-09-12T07:32:21.605280 MEAN_MOTION = 1.00271639 ECCENTRICITY = .00059599 INCLINATION = 2.6093 RA_OF_ASC_NODE = 94.9051 ARG_OF_PERICENTER = 21.2547 MEAN_ANOMALY = 148.3193 EPHEMERIS_TYPE = 0 CLASSIFICATION_TYPE = U NORAD_CAT_ID = 43683 ELEMENT_SET_NO = 999 REV_AT_EPOCH = 2893 BSTAR = 0 MEAN_MOTION_DOT = -.12200E-5 MEAN_MOTION_DDOT = 0 CCSDS_OMM_VERS = 2.0 CREATION_DATE = ORIGINATOR = OBJECT_NAME = EUTELSAT 5 WEST B (EGNOS/PRN 121) OBJECT_ID = 2019-067A CENTER_NAME = EARTH REF_FRAME = TEME TIME_SYSTEM = UTC MEAN_ELEMENT_THEORY = SGP/SGP4 EPOCH = 2026-09-12T07:02:13.778592 MEAN_MOTION = 1.00271414 ECCENTRICITY = .00031178 INCLINATION = 0.0807 RA_OF_ASC_NODE = 320.7031 ARG_OF_PERICENTER = 210.1059 MEAN_ANOMALY = 281.0499 EPHEMERIS_TYPE = 0 CLASSIFICATION_TYPE = U NORAD_CAT_ID = 44624 ELEMENT_SET_NO = 999 REV_AT_EPOCH = 2530 BSTAR = 0 MEAN_MOTION_DOT = -.57000E-6 MEAN_MOTION_DDOT = 0 CCSDS_OMM_VERS = 2.0 CREATION_DATE = ORIGINATOR = OBJECT_NAME = BEIDOU-3 G2 (PRN 144) OBJECT_ID = 2020-017A CENTER_NAME = EARTH REF_FRAME = TEME TIME_SYSTEM = UTC MEAN_ELEMENT_THEORY = SGP/SGP4 EPOCH = 2026-09-12T04:01:01.155072 MEAN_MOTION = 1.00272263 ECCENTRICITY = .0002124 INCLINATION = 2.5806 RA_OF_ASC_NODE = 48.3907 ARG_OF_PERICENTER = 131.9601 MEAN_ANOMALY = 311.1309 EPHEMERIS_TYPE = 0 CLASSIFICATION_TYPE = U NORAD_CAT_ID = 45344 ELEMENT_SET_NO = 999 REV_AT_EPOCH = 2413 BSTAR = 0 MEAN_MOTION_DOT = -.15300E-5 MEAN_MOTION_DDOT = 0 CCSDS_OMM_VERS = 2.0 CREATION_DATE = ORIGINATOR = OBJECT_NAME = BEIDOU-3 G3 (PRN 143) OBJECT_ID = 2020-040A CENTER_NAME = EARTH REF_FRAME = TEME TIME_SYSTEM = UTC MEAN_ELEMENT_THEORY = SGP/SGP4 EPOCH = 2026-09-12T07:35:10.620096 MEAN_MOTION = 1.00269676 ECCENTRICITY = .00026444 INCLINATION = 2.6569 RA_OF_ASC_NODE = 67.4129 ARG_OF_PERICENTER = 281.4958 MEAN_ANOMALY = 226.759 EPHEMERIS_TYPE = 0 CLASSIFICATION_TYPE = U NORAD_CAT_ID = 45807 ELEMENT_SET_NO = 999 REV_AT_EPOCH = 2294 BSTAR = 0 MEAN_MOTION_DOT = -.36700E-5 MEAN_MOTION_DDOT = 0 CCSDS_OMM_VERS = 2.0 CREATION_DATE = ORIGINATOR = OBJECT_NAME = GALAXY 30 (WAAS/PRN 135) OBJECT_ID = 2020-056C CENTER_NAME = EARTH REF_FRAME = TEME TIME_SYSTEM = UTC MEAN_ELEMENT_THEORY = SGP/SGP4 EPOCH = 2026-09-12T06:28:02.056800 MEAN_MOTION = 1.00271549 ECCENTRICITY = .00022071 INCLINATION = 0.0228 RA_OF_ASC_NODE = 160.5572 ARG_OF_PERICENTER = 10.2914 MEAN_ANOMALY = 152.4352 EPHEMERIS_TYPE = 0 CLASSIFICATION_TYPE = U NORAD_CAT_ID = 46114 ELEMENT_SET_NO = 999 REV_AT_EPOCH = 2216 BSTAR = 0 MEAN_MOTION_DOT = 0 MEAN_MOTION_DDOT = 0 CCSDS_OMM_VERS = 2.0 CREATION_DATE = ORIGINATOR = OBJECT_NAME = QZS-1R (QZSS/PRN 196) OBJECT_ID = 2021-096A CENTER_NAME = EARTH REF_FRAME = TEME TIME_SYSTEM = UTC MEAN_ELEMENT_THEORY = SGP/SGP4 EPOCH = 2026-09-11T09:25:14.441664 MEAN_MOTION = 1.00288461 ECCENTRICITY = .07433985 INCLINATION = 37.6399 RA_OF_ASC_NODE = 78.3072 ARG_OF_PERICENTER = 269.8635 MEAN_ANOMALY = 277.5426 EPHEMERIS_TYPE = 0 CLASSIFICATION_TYPE = U NORAD_CAT_ID = 49336 ELEMENT_SET_NO = 999 REV_AT_EPOCH = 1787 BSTAR = 0 MEAN_MOTION_DOT = -.26000E-5 MEAN_MOTION_DDOT = 0 CCSDS_OMM_VERS = 2.0 CREATION_DATE = ORIGINATOR = OBJECT_NAME = QZS-6 (QZSS/PRN 200) OBJECT_ID = 2025-023A CENTER_NAME = EARTH REF_FRAME = TEME TIME_SYSTEM = UTC MEAN_ELEMENT_THEORY = SGP/SGP4 EPOCH = 2026-09-12T00:14:23.327808 MEAN_MOTION = 1.00270149 ECCENTRICITY = .000161 INCLINATION = 0.0404 RA_OF_ASC_NODE = 73.6831 ARG_OF_PERICENTER = 112.5074 MEAN_ANOMALY = 258.9253 EPHEMERIS_TYPE = 0 CLASSIFICATION_TYPE = U NORAD_CAT_ID = 62876 ELEMENT_SET_NO = 999 REV_AT_EPOCH = 581 BSTAR = 0 MEAN_MOTION_DOT = -.24800E-5 MEAN_MOTION_DDOT = 0